contact:dominique.lefevre@mio.osupytheas.fr, maurice.libes@osupytheas.fr, didier.mallarino@osupytheas.fr
Project:EMSO http://www.emso-fr.org/EMSO-France
Depth: 2436.0 m
Title:EMSO Ligure Ouest : Data MII capteur CSTAR
DateTime,Latitude,Longitude,Instrument_Serial,Reference_Counts,Signal_Counts,Corrected_Signal_raw_counts,Calculated_Beam_c_inverse_meters,Internal_thermistor_counts
DateTime,Latitude,Longitude,Instrument_Serial,Reference_Counts,Signal_Counts,Corrected_Signal_raw_counts,Calculated_Beam_c_inverse_meters,Internal_thermistor_counts
2020-01-19T00:01:08,42.805,6.029,CST-1368DR,6937,9718,15248,0.095,551
2020-01-19T00:04:09,42.805,6.029,CST-1368DR,6937,9724,15257,0.093,551
2020-01-19T00:07:11,42.805,6.029,CST-1368DR,6937,9725,15259,0.093,551
2020-01-19T00:10:13,42.805,6.029,CST-1368DR,6937,9724,15257,0.093,551
2020-01-19T00:13:15,42.805,6.029,CST-1368DR,6937,9723,15256,0.093,551
2020-01-19T00:16:16,42.805,6.029,CST-1368DR,6937,9723,15256,0.093,551
2020-01-19T00:19:18,42.805,6.029,CST-1368DR,6937,9722,15253,0.094,551
2020-01-19T00:22:20,42.805,6.029,CST-1368DR,6937,9724,15257,0.093,551
2020-01-19T00:25:21,42.805,6.029,CST-1368DR,6937,9724,15257,0.093,551
2020-01-19T00:28:23,42.805,6.029,CST-1368DR,6937,9723,15255,0.094,551
2020-01-19T00:31:24,42.805,6.029,CST-1368DR,6937,9724,15257,0.093,551
2020-01-19T00:34:26,42.805,6.029,CST-1368DR,6937,9724,15257,0.093,551
2020-01-19T00:37:28,42.805,6.029,CST-1368DR,6937,9724,15257,0.093,551
2020-01-19T00:40:29,42.805,6.029,CST-1368DR,6937,9724,15257,0.093,551
2020-01-19T00:43:31,42.805,6.029,CST-1368DR,6937,9724,15257,0.093,550
2020-01-19T00:46:33,42.805,6.029,CST-1368DR,6937,9720,15251,0.095,550
2020-01-19T00:49:34,42.805,6.029,CST-1368DR,6937,9723,15256,0.093,551
2020-01-19T00:52:36,42.805,6.029,CST-1368DR,6937,9722,15255,0.094,551
2020-01-19T00:55:38,42.805,6.029,CST-1368DR,6937,9719,15249,0.095,551
2020-01-19T00:58:39,42.805,6.029,CST-1368DR,6937,9722,15254,0.094,551
2020-01-19T01:01:41,42.805,6.029,CST-1368DR,6937,9722,15255,0.094,551
2020-01-19T01:04:43,42.805,6.029,CST-1368DR,6937,9722,15254,0.094,551
2020-01-19T01:07:44,42.805,6.029,CST-1368DR,6937,9723,15256,0.093,551
2020-01-19T01:10:46,42.805,6.029,CST-1368DR,6937,9724,15257,0.093,551
2020-01-19T01:13:48,42.805,6.029,CST-1368DR,6937,9722,15254,0.094,551
2020-01-19T01:16:49,42.805,6.029,CST-1368DR,6937,9723,15255,0.094,551
2020-01-19T01:19:51,42.805,6.029,CST-1368DR,6937,9723,15255,0.094,551
2020-01-19T01:22:53,42.805,6.029,CST-1368DR,6937,9723,15256,0.093,551
2020-01-19T01:25:54,42.805,6.029,CST-1368DR,6937,9723,15256,0.093,551
2020-01-19T01:28:56,42.805,6.029,CST-1368DR,6937,9724,15257,0.093,551
2020-01-19T01:31:58,42.805,6.029,CST-1368DR,6937,9723,15256,0.093,551
2020-01-19T01:34:59,42.805,6.029,CST-1368DR,6937,9724,15257,0.093,551
2020-01-19T01:38:01,42.805,6.029,CST-1368DR,6937,9719,15249,0.095,551
2020-01-19T01:41:03,42.805,6.029,CST-1368DR,6937,9725,15258,0.093,551
2020-01-19T01:44:04,42.805,6.029,CST-1368DR,6937,9724,15257,0.093,550
2020-01-19T01:47:06,42.805,6.029,CST-1368DR,6937,9722,15254,0.094,551
2020-01-19T01:50:07,42.805,6.029,CST-1368DR,6937,9721,15253,0.094,551
2020-01-19T01:53:09,42.805,6.029,CST-1368DR,6937,9723,15256,0.093,551
2020-01-19T01:56:11,42.805,6.029,CST-1368DR,6937,9721,15253,0.094,551
2020-01-19T01:59:12,42.805,6.029,CST-1368DR,6937,9724,15257,0.093,551
2020-01-19T02:02:14,42.805,6.029,CST-1368DR,6937,9723,15256,0.093,551
2020-01-19T02:05:16,42.805,6.029,CST-1368DR,6937,9723,15256,0.093,551
2020-01-19T02:08:17,42.805,6.029,CST-1368DR,6937,9721,15253,0.094,551
2020-01-19T02:11:19,42.805,6.029,CST-1368DR,6937,9722,15255,0.094,551
2020-01-19T02:14:21,42.805,6.029,CST-1368DR,6937,9721,15253,0.094,551
2020-01-19T02:17:22,42.805,6.029,CST-1368DR,6937,9723,15256,0.093,551
2020-01-19T02:20:24,42.805,6.029,CST-1368DR,6937,9724,15257,0.093,551
2020-01-19T02:23:26,42.805,6.029,CST-1368DR,6937,9724,15257,0.093,551
2020-01-19T02:26:27,42.805,6.029,CST-1368DR,6937,9724,15257,0.093,551
2020-01-19T02:29:29,42.805,6.029,CST-1368DR,6937,9723,15256,0.093,551
2020-01-19T02:32:31,42.805,6.029,CST-1368DR,6937,9722,15255,0.094,551
2020-01-19T02:35:32,42.805,6.029,CST-1368DR,6937,9722,15254,0.094,551
2020-01-19T02:38:34,42.805,6.029,CST-1368DR,6937,9724,15257,0.093,551
2020-01-19T02:41:35,42.805,6.029,CST-1368DR,6937,9724,15257,0.093,551
2020-01-19T02:44:37,42.805,6.029,CST-1368DR,6936,9723,15258,0.093,551
2020-01-19T02:47:39,42.805,6.029,CST-1368DR,6937,9724,15257,0.093,551
2020-01-19T02:50:40,42.805,6.029,CST-1368DR,6936,9723,15257,0.093,551
2020-01-19T02:53:42,42.805,6.029,CST-1368DR,6936,9723,15257,0.093,551
2020-01-19T02:56:44,42.805,6.029,CST-1368DR,6936,9723,15258,0.093,551
2020-01-19T02:59:45,42.805,6.029,CST-1368DR,6936,9722,15256,0.093,551
2020-01-19T03:02:47,42.805,6.029,CST-1368DR,6937,9723,15256,0.093,551
2020-01-19T03:05:49,42.805,6.029,CST-1368DR,6936,9723,15257,0.093,551
2020-01-19T03:08:51,42.805,6.029,CST-1368DR,6937,9724,15257,0.093,551
2020-01-19T03:11:52,42.805,6.029,CST-1368DR,6936,9724,15259,0.093,550
2020-01-19T03:14:54,42.805,6.029,CST-1368DR,6937,9724,15257,0.093,551
2020-01-19T03:17:56,42.805,6.029,CST-1368DR,6936,9722,15257,0.093,551
2020-01-19T03:20:58,42.805,6.029,CST-1368DR,6936,9723,15257,0.093,551
2020-01-19T03:23:59,42.805,6.029,CST-1368DR,6936,9723,15257,0.093,551
2020-01-19T03:27:01,42.805,6.029,CST-1368DR,6936,9721,15254,0.094,551
2020-01-19T03:30:02,42.805,6.029,CST-1368DR,6936,9723,15257,0.093,551
2020-01-19T03:33:04,42.805,6.029,CST-1368DR,6936,9721,15255,0.094,551
2020-01-19T03:36:06,42.805,6.029,CST-1368DR,6936,9723,15257,0.093,551
2020-01-19T03:39:07,42.805,6.029,CST-1368DR,6936,9722,15256,0.093,551
2020-01-19T03:42:09,42.805,6.029,CST-1368DR,6936,9722,15256,0.093,550
2020-01-19T03:45:11,42.805,6.029,CST-1368DR,6936,9723,15257,0.093,551
2020-01-19T03:48:12,42.805,6.029,CST-1368DR,6936,9723,15257,0.093,551
2020-01-19T03:51:14,42.805,6.029,CST-1368DR,6936,9723,15257,0.093,551
2020-01-19T03:54:16,42.805,6.029,CST-1368DR,6936,9722,15256,0.093,551
2020-01-19T03:57:17,42.805,6.029,CST-1368DR,6936,9723,15258,0.093,551
2020-01-19T04:00:19,42.805,6.029,CST-1368DR,6936,9723,15257,0.093,551
2020-01-19T04:03:21,42.805,6.029,CST-1368DR,6936,9722,15256,0.093,551
2020-01-19T04:06:22,42.805,6.029,CST-1368DR,6936,9723,15258,0.093,551
2020-01-19T04:09:24,42.805,6.029,CST-1368DR,6936,9718,15250,0.095,551
2020-01-19T04:12:26,42.805,6.029,CST-1368DR,6936,9722,15257,0.093,551
2020-01-19T04:15:27,42.805,6.029,CST-1368DR,6936,9723,15257,0.093,551
2020-01-19T04:18:29,42.805,6.029,CST-1368DR,6936,9723,15257,0.093,551
2020-01-19T04:21:30,42.805,6.029,CST-1368DR,6936,9722,15256,0.093,551
2020-01-19T04:24:32,42.805,6.029,CST-1368DR,6936,9723,15257,0.093,551
2020-01-19T04:27:34,42.805,6.029,CST-1368DR,6936,9720,15253,0.094,551
2020-01-19T04:30:35,42.805,6.029,CST-1368DR,6936,9723,15257,0.093,551
2020-01-19T04:33:37,42.805,6.029,CST-1368DR,6936,9722,15256,0.093,551
2020-01-19T04:36:39,42.805,6.029,CST-1368DR,6936,9721,15254,0.094,551
2020-01-19T04:39:41,42.805,6.029,CST-1368DR,6936,9723,15257,0.093,551
2020-01-19T04:42:42,42.805,6.029,CST-1368DR,6936,9723,15258,0.093,550
2020-01-19T04:45:44,42.805,6.029,CST-1368DR,6936,9722,15256,0.093,550
2020-01-19T04:48:45,42.805,6.029,CST-1368DR,6936,9724,15259,0.093,551
2020-01-19T04:51:47,42.805,6.029,CST-1368DR,6936,9720,15253,0.094,551
2020-01-19T04:54:49,42.805,6.029,CST-1368DR,6936,9722,15257,0.093,551
2020-01-19T04:57:50,42.805,6.029,CST-1368DR,6936,9723,15258,0.093,551
2020-01-19T05:00:52,42.805,6.029,CST-1368DR,6936,9721,15255,0.094,551
2020-01-19T05:03:54,42.805,6.029,CST-1368DR,6936,9722,15257,0.093,551
2020-01-19T05:06:56,42.805,6.029,CST-1368DR,6936,9723,15257,0.093,551
2020-01-19T05:09:57,42.805,6.029,CST-1368DR,6936,9723,15258,0.093,551
2020-01-19T05:12:59,42.805,6.029,CST-1368DR,6936,9723,15258,0.093,551
2020-01-19T05:16:01,42.805,6.029,CST-1368DR,6936,9723,15258,0.093,551
2020-01-19T05:19:02,42.805,6.029,CST-1368DR,6936,9722,15256,0.093,551
2020-01-19T05:22:04,42.805,6.029,CST-1368DR,6936,9722,15256,0.093,551
2020-01-19T05:25:06,42.805,6.029,CST-1368DR,6936,9723,15257,0.093,551
2020-01-19T05:28:07,42.805,6.029,CST-1368DR,6936,9721,15254,0.094,551
2020-01-19T05:31:09,42.805,6.029,CST-1368DR,6936,9722,15256,0.093,551
2020-01-19T05:34:11,42.805,6.029,CST-1368DR,6936,9722,15256,0.093,551
2020-01-19T05:37:12,42.805,6.029,CST-1368DR,6936,9723,15258,0.093,551
2020-01-19T05:40:14,42.805,6.029,CST-1368DR,6936,9723,15258,0.093,551
2020-01-19T05:43:16,42.805,6.029,CST-1368DR,6936,9722,15256,0.093,551
2020-01-19T05:46:17,42.805,6.029,CST-1368DR,6936,9721,15255,0.094,551
2020-01-19T05:49:19,42.805,6.029,CST-1368DR,6936,9722,15256,0.093,551
2020-01-19T05:52:21,42.805,6.029,CST-1368DR,6936,9721,15255,0.094,551
2020-01-19T05:55:22,42.805,6.029,CST-1368DR,6936,9721,15255,0.094,551
2020-01-19T05:58:24,42.805,6.029,CST-1368DR,6936,9722,15257,0.093,550
2020-01-19T06:01:26,42.805,6.029,CST-1368DR,6936,9718,15250,0.095,551
2020-01-19T06:04:27,42.805,6.029,CST-1368DR,6936,9722,15256,0.093,551
2020-01-19T06:07:29,42.805,6.029,CST-1368DR,6936,9722,15256,0.093,551
2020-01-19T06:10:30,42.805,6.029,CST-1368DR,6936,9722,15257,0.093,551
2020-01-19T06:13:32,42.805,6.029,CST-1368DR,6936,9721,15255,0.094,551
2020-01-19T06:16:34,42.805,6.029,CST-1368DR,6936,9720,15254,0.094,551
2020-01-19T06:19:35,42.805,6.029,CST-1368DR,6936,9722,15256,0.093,551
2020-01-19T06:22:37,42.805,6.029,CST-1368DR,6936,9721,15254,0.094,551
2020-01-19T06:25:39,42.805,6.029,CST-1368DR,6936,9722,15256,0.093,551
2020-01-19T06:28:40,42.805,6.029,CST-1368DR,6936,9722,15256,0.093,551
2020-01-19T06:31:42,42.805,6.029,CST-1368DR,6936,9722,15257,0.093,551
2020-01-19T06:34:44,42.805,6.029,CST-1368DR,6936,9721,15255,0.094,551
2020-01-19T06:37:45,42.805,6.029,CST-1368DR,6936,9722,15256,0.093,551
2020-01-19T06:40:47,42.805,6.029,CST-1368DR,6936,9721,15255,0.094,550
2020-01-19T06:43:49,42.805,6.029,CST-1368DR,6936,9722,15257,0.093,551
2020-01-19T06:46:50,42.805,6.029,CST-1368DR,6936,9720,15254,0.094,550
2020-01-19T06:49:52,42.805,6.029,CST-1368DR,6936,9721,15255,0.094,550
2020-01-19T06:52:54,42.805,6.029,CST-1368DR,6936,9719,15251,0.095,551
2020-01-19T06:55:55,42.805,6.029,CST-1368DR,6936,9722,15256,0.093,551
2020-01-19T06:58:57,42.805,6.029,CST-1368DR,6936,9722,15256,0.093,551
2020-01-19T07:01:59,42.805,6.029,CST-1368DR,6936,9721,15255,0.094,551
2020-01-19T07:05:00,42.805,6.029,CST-1368DR,6936,9721,15255,0.094,551
2020-01-19T07:08:02,42.805,6.029,CST-1368DR,6936,9722,15256,0.093,551
2020-01-19T07:11:03,42.805,6.029,CST-1368DR,6936,9723,15258,0.093,551
2020-01-19T07:15:07,42.805,6.029,CST-1368DR,6936,9719,15251,0.095,551
2020-01-19T07:18:09,42.805,6.029,CST-1368DR,6936,9722,15256,0.093,551
2020-01-19T07:21:11,42.805,6.029,CST-1368DR,6936,9722,15256,0.093,551
2020-01-19T07:24:12,42.805,6.029,CST-1368DR,6936,9722,15256,0.093,551
2020-01-19T07:27:14,42.805,6.029,CST-1368DR,6936,9721,15255,0.094,551
2020-01-19T07:30:16,42.805,6.029,CST-1368DR,6936,9721,15255,0.094,551
2020-01-19T07:33:17,42.805,6.029,CST-1368DR,6936,9721,15254,0.094,551
2020-01-19T07:36:19,42.805,6.029,CST-1368DR,6935,9721,15256,0.093,551
2020-01-19T07:39:21,42.805,6.029,CST-1368DR,6935,9721,15256,0.093,551
2020-01-19T07:42:22,42.805,6.029,CST-1368DR,6936,9722,15257,0.093,550
2020-01-19T07:45:24,42.805,6.029,CST-1368DR,6935,9722,15258,0.093,551
2020-01-19T07:48:26,42.805,6.029,CST-1368DR,6935,9721,15257,0.093,551
2020-01-19T07:51:27,42.805,6.029,CST-1368DR,6936,9722,15256,0.093,551
2020-01-19T07:54:29,42.805,6.029,CST-1368DR,6935,9722,15258,0.093,551
2020-01-19T07:57:31,42.805,6.029,CST-1368DR,6935,9721,15256,0.093,551
2020-01-19T08:00:32,42.805,6.029,CST-1368DR,6935,9721,15257,0.093,551
2020-01-19T08:03:34,42.805,6.029,CST-1368DR,6935,9722,15258,0.093,551
2020-01-19T08:06:35,42.805,6.029,CST-1368DR,6935,9721,15256,0.093,551
2020-01-19T08:09:37,42.805,6.029,CST-1368DR,6935,9722,15258,0.093,551
2020-01-19T08:12:39,42.805,6.029,CST-1368DR,6935,9717,15250,0.095,551
2020-01-19T08:15:40,42.805,6.029,CST-1368DR,6935,9722,15259,0.093,551
2020-01-19T08:18:42,42.805,6.029,CST-1368DR,6935,9722,15258,0.093,551
2020-01-19T08:21:44,42.805,6.029,CST-1368DR,6935,9720,15255,0.094,551
2020-01-19T08:24:46,42.805,6.029,CST-1368DR,6935,9721,15256,0.093,551
2020-01-19T08:27:47,42.805,6.029,CST-1368DR,6935,9722,15258,0.093,551
2020-01-19T08:30:49,42.805,6.029,CST-1368DR,6935,9719,15254,0.094,551
2020-01-19T08:33:51,42.805,6.029,CST-1368DR,6935,9721,15256,0.093,551
2020-01-19T08:36:52,42.805,6.029,CST-1368DR,6935,9721,15256,0.093,551
2020-01-19T08:39:54,42.805,6.029,CST-1368DR,6935,9722,15259,0.093,551
2020-01-19T08:42:55,42.805,6.029,CST-1368DR,6935,9720,15255,0.094,550
2020-01-19T08:45:57,42.805,6.029,CST-1368DR,6935,9720,15255,0.094,551
2020-01-19T08:48:59,42.805,6.029,CST-1368DR,6935,9721,15257,0.093,551
2020-01-19T08:52:00,42.805,6.029,CST-1368DR,6935,9721,15256,0.093,551
2020-01-19T08:55:02,42.805,6.029,CST-1368DR,6935,9722,15258,0.093,551
2020-01-19T08:58:04,42.805,6.029,CST-1368DR,6935,9721,15257,0.093,551
2020-01-19T09:01:05,42.805,6.029,CST-1368DR,6935,9719,15254,0.094,551
2020-01-19T09:04:07,42.805,6.029,CST-1368DR,6935,9721,15257,0.093,551
2020-01-19T09:07:09,42.805,6.029,CST-1368DR,6935,9721,15257,0.093,551
2020-01-19T09:10:10,42.805,6.029,CST-1368DR,6935,9721,15256,0.093,551
2020-01-19T09:13:12,42.805,6.029,CST-1368DR,6935,9721,15257,0.093,551
2020-01-19T09:16:14,42.805,6.029,CST-1368DR,6935,9721,15256,0.093,551
2020-01-19T09:19:15,42.805,6.029,CST-1368DR,6935,9719,15253,0.094,551
2020-01-19T09:22:17,42.805,6.029,CST-1368DR,6935,9721,15256,0.093,551
2020-01-19T09:25:19,42.805,6.029,CST-1368DR,6935,9721,15257,0.093,551
2020-01-19T09:28:21,42.805,6.029,CST-1368DR,6935,9721,15256,0.093,551
2020-01-19T09:31:22,42.805,6.029,CST-1368DR,6935,9720,15256,0.093,551
2020-01-19T09:34:24,42.805,6.029,CST-1368DR,6935,9721,15256,0.093,551
2020-01-19T09:37:26,42.805,6.029,CST-1368DR,6935,9721,15257,0.093,551
2020-01-19T09:40:27,42.805,6.029,CST-1368DR,6935,9720,15255,0.094,551
2020-01-19T09:43:29,42.805,6.029,CST-1368DR,6935,9720,15255,0.094,551
2020-01-19T09:46:31,42.805,6.029,CST-1368DR,6935,9721,15257,0.093,551
2020-01-19T09:49:32,42.805,6.029,CST-1368DR,6935,9721,15257,0.093,551
2020-01-19T09:52:34,42.805,6.029,CST-1368DR,6935,9720,15254,0.094,551
2020-01-19T09:55:36,42.805,6.029,CST-1368DR,6935,9721,15256,0.093,551
2020-01-19T09:58:37,42.805,6.029,CST-1368DR,6935,9718,15252,0.094,551
2020-01-19T10:01:39,42.805,6.029,CST-1368DR,6935,9720,15256,0.093,551
2020-01-19T10:04:41,42.805,6.029,CST-1368DR,6935,9721,15257,0.093,551
2020-01-19T10:07:42,42.805,6.029,CST-1368DR,6935,9720,15256,0.093,551
2020-01-19T10:10:44,42.805,6.029,CST-1368DR,6935,9721,15256,0.093,550
2020-01-19T10:13:46,42.805,6.029,CST-1368DR,6935,9716,15248,0.095,551
2020-01-19T10:16:47,42.805,6.029,CST-1368DR,6935,9720,15255,0.094,550
2020-01-19T10:19:49,42.805,6.029,CST-1368DR,6935,9718,15252,0.094,551
2020-01-19T10:22:51,42.805,6.029,CST-1368DR,6935,9720,15255,0.094,551
2020-01-19T10:25:52,42.805,6.029,CST-1368DR,6935,9719,15254,0.094,550
2020-01-19T10:28:54,42.805,6.029,CST-1368DR,6935,9721,15256,0.093,551
2020-01-19T10:31:56,42.805,6.029,CST-1368DR,6935,9720,15256,0.093,551
2020-01-19T10:34:57,42.805,6.029,CST-1368DR,6935,9719,15254,0.094,551
2020-01-19T10:37:59,42.805,6.029,CST-1368DR,6935,9719,15253,0.094,551
2020-01-19T10:41:01,42.805,6.029,CST-1368DR,6935,9718,15253,0.094,551
2020-01-19T10:44:02,42.805,6.029,CST-1368DR,6935,9720,15255,0.094,551
2020-01-19T10:47:04,42.805,6.029,CST-1368DR,6935,9720,15256,0.093,551
2020-01-19T10:50:06,42.805,6.029,CST-1368DR,6935,9717,15250,0.095,551
2020-01-19T10:53:07,42.805,6.029,CST-1368DR,6935,9720,15256,0.093,551
2020-01-19T10:56:09,42.805,6.029,CST-1368DR,6935,9720,15254,0.094,551
2020-01-19T10:59:11,42.805,6.029,CST-1368DR,6935,9720,15255,0.094,551
2020-01-19T11:02:12,42.805,6.029,CST-1368DR,6934,9710,15242,0.097,551
2020-01-19T11:05:14,42.805,6.029,CST-1368DR,6935,9720,15255,0.094,551
2020-01-19T11:08:15,42.805,6.029,CST-1368DR,6935,9721,15257,0.093,550
2020-01-19T11:11:17,42.805,6.029,CST-1368DR,6935,9720,15255,0.094,551
2020-01-19T11:14:19,42.805,6.029,CST-1368DR,6935,9720,15255,0.094,551
2020-01-19T11:17:21,42.805,6.029,CST-1368DR,6935,9720,15254,0.094,551
2020-01-19T11:20:22,42.805,6.029,CST-1368DR,6934,9718,15255,0.094,551
2020-01-19T11:23:24,42.805,6.029,CST-1368DR,6935,9719,15253,0.094,551
2020-01-19T11:26:26,42.805,6.029,CST-1368DR,6935,9719,15253,0.094,551
2020-01-19T11:29:27,42.805,6.029,CST-1368DR,6934,9720,15258,0.093,551
2020-01-19T11:32:29,42.805,6.029,CST-1368DR,6934,9718,15255,0.094,551
2020-01-19T11:35:31,42.805,6.029,CST-1368DR,6935,9720,15255,0.094,551
2020-01-19T11:38:32,42.805,6.029,CST-1368DR,6934,9720,15257,0.093,551
2020-01-19T11:41:34,42.805,6.029,CST-1368DR,6934,9721,15259,0.093,551
2020-01-19T11:44:36,42.805,6.029,CST-1368DR,6934,9719,15256,0.093,551
2020-01-19T11:47:37,42.805,6.029,CST-1368DR,6934,9720,15257,0.093,551
2020-01-19T11:50:39,42.805,6.029,CST-1368DR,6934,9721,15258,0.093,551
2020-01-19T11:53:40,42.805,6.029,CST-1368DR,6934,9720,15257,0.093,551
2020-01-19T11:56:42,42.805,6.029,CST-1368DR,6934,9720,15258,0.093,551
2020-01-19T11:59:44,42.805,6.029,CST-1368DR,6934,9720,15257,0.093,551
2020-01-19T12:02:45,42.805,6.029,CST-1368DR,6934,9720,15257,0.093,550
2020-01-19T12:05:47,42.805,6.029,CST-1368DR,6934,9720,15257,0.093,551
2020-01-19T12:08:49,42.805,6.029,CST-1368DR,6934,9720,15257,0.093,551
2020-01-19T12:11:50,42.805,6.029,CST-1368DR,6934,9718,15254,0.094,551
2020-01-19T12:14:52,42.805,6.029,CST-1368DR,6934,9720,15257,0.093,551
2020-01-19T12:17:54,42.805,6.029,CST-1368DR,6934,9718,15254,0.094,551
2020-01-19T12:20:55,42.805,6.029,CST-1368DR,6934,9719,15255,0.094,551
2020-01-19T12:23:57,42.805,6.029,CST-1368DR,6934,9718,15253,0.094,551
2020-01-19T12:26:59,42.805,6.029,CST-1368DR,6934,9719,15255,0.094,551
2020-01-19T12:30:00,42.805,6.029,CST-1368DR,6934,9719,15255,0.094,550
2020-01-19T12:33:02,42.805,6.029,CST-1368DR,6934,9719,15256,0.093,551
2020-01-19T12:36:04,42.805,6.029,CST-1368DR,6934,9718,15254,0.094,551
2020-01-19T12:39:05,42.805,6.029,CST-1368DR,6934,9719,15255,0.094,551
2020-01-19T12:42:07,42.805,6.029,CST-1368DR,6934,9719,15256,0.093,551
2020-01-19T12:45:09,42.805,6.029,CST-1368DR,6934,9715,15249,0.095,551
2020-01-19T12:48:10,42.805,6.029,CST-1368DR,6934,9719,15255,0.094,551
2020-01-19T12:51:12,42.805,6.029,CST-1368DR,6934,9719,15256,0.093,551
2020-01-19T12:54:14,42.805,6.029,CST-1368DR,6934,9719,15255,0.094,550
2020-01-19T12:57:15,42.805,6.029,CST-1368DR,6934,9719,15255,0.094,551
2020-01-19T13:00:17,42.805,6.029,CST-1368DR,6934,9718,15253,0.094,551
2020-01-19T13:03:19,42.805,6.029,CST-1368DR,6934,9717,15253,0.094,551
2020-01-19T13:06:20,42.805,6.029,CST-1368DR,6934,9718,15254,0.094,551
2020-01-19T13:09:22,42.805,6.029,CST-1368DR,6934,9718,15255,0.094,551
2020-01-19T13:12:24,42.805,6.029,CST-1368DR,6934,9717,15253,0.094,551
2020-01-19T13:15:25,42.805,6.029,CST-1368DR,6934,9718,15254,0.094,551
2020-01-19T13:18:27,42.805,6.029,CST-1368DR,6934,9719,15255,0.094,551
2020-01-19T13:21:29,42.805,6.029,CST-1368DR,6934,9718,15254,0.094,551
2020-01-19T13:24:30,42.805,6.029,CST-1368DR,6934,9717,15253,0.094,551
2020-01-19T13:27:32,42.805,6.029,CST-1368DR,6934,9717,15252,0.094,551
2020-01-19T13:30:34,42.805,6.029,CST-1368DR,6934,9718,15254,0.094,551
2020-01-19T13:33:35,42.805,6.029,CST-1368DR,6934,9716,15251,0.095,551
2020-01-19T13:36:37,42.805,6.029,CST-1368DR,6934,9717,15252,0.094,551
2020-01-19T13:39:39,42.805,6.029,CST-1368DR,6934,9716,15251,0.095,551
2020-01-19T13:42:40,42.805,6.029,CST-1368DR,6934,9717,15253,0.094,551
2020-01-19T13:45:42,42.805,6.029,CST-1368DR,6934,9716,15251,0.095,551
2020-01-19T13:48:44,42.805,6.029,CST-1368DR,6934,9717,15252,0.094,551
2020-01-19T13:51:45,42.805,6.029,CST-1368DR,6934,9719,15255,0.094,551
2020-01-19T13:54:47,42.805,6.029,CST-1368DR,6934,9718,15255,0.094,551
2020-01-19T13:57:49,42.805,6.029,CST-1368DR,6934,9719,15255,0.094,550
2020-01-19T14:00:50,42.805,6.029,CST-1368DR,6934,9717,15252,0.094,551
2020-01-19T14:03:52,42.805,6.029,CST-1368DR,6934,9719,15255,0.094,551
2020-01-19T14:06:54,42.805,6.029,CST-1368DR,6934,9719,15255,0.094,551
2020-01-19T14:09:55,42.805,6.029,CST-1368DR,6934,9719,15255,0.094,551
2020-01-19T14:12:57,42.805,6.029,CST-1368DR,6934,9718,15253,0.094,551
2020-01-19T14:15:59,42.805,6.029,CST-1368DR,6934,9719,15255,0.094,551
2020-01-19T14:19:00,42.805,6.029,CST-1368DR,6934,9718,15255,0.094,551
2020-01-19T14:22:02,42.805,6.029,CST-1368DR,6934,9718,15254,0.094,551
2020-01-19T14:25:03,42.805,6.029,CST-1368DR,6934,9719,15255,0.094,551
2020-01-19T14:28:05,42.805,6.029,CST-1368DR,6934,9718,15254,0.094,551
2020-01-19T14:31:07,42.805,6.029,CST-1368DR,6934,9719,15256,0.093,551
2020-01-19T14:34:08,42.805,6.029,CST-1368DR,6934,9715,15249,0.095,551
2020-01-19T14:37:10,42.805,6.029,CST-1368DR,6934,9717,15253,0.094,551
2020-01-19T14:40:12,42.805,6.029,CST-1368DR,6934,9711,15244,0.096,551
2020-01-19T14:43:13,42.805,6.029,CST-1368DR,6934,9718,15253,0.094,551
2020-01-19T14:46:15,42.805,6.029,CST-1368DR,6934,9717,15252,0.094,551
2020-01-19T14:49:17,42.805,6.029,CST-1368DR,6934,9714,15247,0.096,551
2020-01-19T14:52:18,42.805,6.029,CST-1368DR,6934,9716,15251,0.095,551
2020-01-19T14:55:20,42.805,6.029,CST-1368DR,6934,9718,15254,0.094,551
2020-01-19T14:58:22,42.805,6.029,CST-1368DR,6934,9717,15253,0.094,551
2020-01-19T15:01:24,42.805,6.029,CST-1368DR,6934,9719,15255,0.094,551
2020-01-19T15:04:25,42.805,6.029,CST-1368DR,6934,9717,15253,0.094,551
2020-01-19T15:07:27,42.805,6.029,CST-1368DR,6934,9716,15250,0.095,551
2020-01-19T15:10:28,42.805,6.029,CST-1368DR,6934,9716,15251,0.095,551
2020-01-19T15:13:30,42.805,6.029,CST-1368DR,6934,9709,15239,0.098,551
2020-01-19T15:16:32,42.805,6.029,CST-1368DR,6934,9717,15253,0.094,551
2020-01-19T15:19:34,42.805,6.029,CST-1368DR,6933,9718,15256,0.093,551
2020-01-19T15:22:35,42.805,6.029,CST-1368DR,6934,9718,15255,0.094,551
2020-01-19T15:25:37,42.805,6.029,CST-1368DR,6934,9716,15251,0.095,551
2020-01-19T15:28:39,42.805,6.029,CST-1368DR,6934,9717,15253,0.094,551
2020-01-19T15:31:40,42.805,6.029,CST-1368DR,6933,9718,15255,0.094,551
2020-01-19T15:34:42,42.805,6.029,CST-1368DR,6933,9718,15255,0.094,551
2020-01-19T15:37:44,42.805,6.029,CST-1368DR,6933,9719,15257,0.093,551
2020-01-19T15:40:45,42.805,6.029,CST-1368DR,6933,9716,15252,0.094,551
2020-01-19T15:43:47,42.805,6.029,CST-1368DR,6934,9718,15254,0.094,551
2020-01-19T15:46:49,42.805,6.029,CST-1368DR,6933,9716,15253,0.094,551
2020-01-19T15:49:50,42.805,6.029,CST-1368DR,6933,9717,15255,0.094,551
2020-01-19T15:52:52,42.805,6.029,CST-1368DR,6933,9718,15256,0.093,551
2020-01-19T15:55:54,42.805,6.029,CST-1368DR,6933,9717,15254,0.094,551
2020-01-19T15:58:55,42.805,6.029,CST-1368DR,6933,9717,15255,0.094,551
2020-01-19T16:01:57,42.805,6.029,CST-1368DR,6933,9718,15256,0.093,550
2020-01-19T16:04:58,42.805,6.029,CST-1368DR,6933,9718,15255,0.094,551
2020-01-19T16:08:00,42.805,6.029,CST-1368DR,6933,9718,15255,0.094,551
2020-01-19T16:11:02,42.805,6.029,CST-1368DR,6933,9718,15256,0.093,551
2020-01-19T16:14:03,42.805,6.029,CST-1368DR,6933,9718,15256,0.093,551
2020-01-19T16:17:05,42.805,6.029,CST-1368DR,6933,9708,15240,0.097,551
2020-01-19T16:20:07,42.805,6.029,CST-1368DR,6933,9718,15255,0.094,551
2020-01-19T16:23:09,42.805,6.029,CST-1368DR,6934,9718,15253,0.094,551
2020-01-19T16:26:10,42.805,6.029,CST-1368DR,6933,9713,15248,0.095,551
2020-01-19T16:29:12,42.805,6.029,CST-1368DR,6933,9718,15255,0.094,551
2020-01-19T16:32:14,42.805,6.029,CST-1368DR,6933,9718,15255,0.094,551
2020-01-19T16:35:16,42.805,6.029,CST-1368DR,6933,9718,15255,0.094,551
2020-01-19T16:38:17,42.805,6.029,CST-1368DR,6933,9719,15257,0.093,551
2020-01-19T16:41:19,42.805,6.029,CST-1368DR,6933,9719,15257,0.093,551
2020-01-19T16:44:21,42.805,6.029,CST-1368DR,6933,9717,15255,0.094,551
2020-01-19T16:47:22,42.805,6.029,CST-1368DR,6933,9719,15257,0.093,551
2020-01-19T16:50:24,42.805,6.029,CST-1368DR,6933,9719,15257,0.093,551
2020-01-19T16:53:26,42.805,6.029,CST-1368DR,6933,9719,15257,0.093,551